Cecil Field, FL

12:15 AM EDT on October 17, 2017 (GMT -0400)
Cecil

Weather History for KVQQ - July, 2013

Change the Weather History Date:

Thursday, July 25, 2013

  Actual Average (KNIP) Record (KNIP)
Temperature  
Mean Temperature 80 °F -  
Max Temperature 89 °F 88 °F 98 °F (2012)
Min Temperature 71 °F 73 °F 69 °F (2000)
Cooling Degree Days 15    
Growing Degree Days 30 (Base 50)    
Moisture  
Dew Point 74 °F    
Average Humidity 91    
Maximum Humidity 100    
Minimum Humidity 59    
Precipitation  
Precipitation 0.00 in - - ()
Sea Level Pressure  
Sea Level Pressure 29.91 in    
Wind  
Wind Speed 3 mph (WSW)    
Max Wind Speed 12 mph    
Max Gust Speed -    
Visibility 9 miles    
Events      
Averages and records for this station are not official NWS values.
T = Trace of Precipitation, MM = Missing Value Source: NWS Daily Summary

Daily Weather History Graph

Daily Weather History Graph

Search for Another Location

Airport or City:

Trip Planner

Search our weather history database for the weather conditions in past years. The results will help you decide how hot, cold, wet, or windy it might be!

Date:

Astronomy

Jul. 25, 2013 Rise Set
Actual Time 6:42 AM EDT 8:25 PM EDT
Civil Twilight 6:15 AM EDT 8:52 PM EDT
Nautical Twilight 5:43 AM EDT 9:23 PM EDT
Astronomical Twilight 5:10 AM EDT 9:57 PM EDT
Moon 10:27 PM EDT (7/25) 9:51 AM EDT (7/25)
Length of Visible Light 14h 36m
Length of Day
13h 43m
Waning Gibbous, 88% of the Moon is Illuminated
Jul 25
Waning Gibbous
Jul 29
Last Quarter
Aug 6
New
Aug 14
First Quarter
Aug 20
Full

Hourly Weather History & Observations

Time (EDT) Temp. Heat Index Dew Point Humidity Pressure Visibility Wind Dir Wind Speed Gust Speed Precip Events Conditions
12:15 AM 75.2 °F - 73.4 °F 94% 29.88 in 10.0 mi Calm Calm - N/A   Clear
12:35 AM 75.2 °F - 73.4 °F 94% 29.88 in 10.0 mi Calm Calm - N/A   Clear
12:55 AM 73.4 °F - 73.4 °F 100% 29.88 in 10.0 mi Calm Calm - N/A   Clear
1:15 AM 73.4 °F - 73.4 °F 100% 29.87 in 10.0 mi Calm Calm - N/A   Clear
1:35 AM 73.4 °F - 73.4 °F 100% 29.87 in 10.0 mi Calm Calm - N/A   Clear
1:55 AM 73.4 °F - 73.4 °F 100% 29.87 in 10.0 mi Calm Calm - N/A   Clear
2:15 AM 73.4 °F - 73.4 °F 100% 29.87 in 10.0 mi SSW 4.6 mph - N/A   Clear
2:35 AM 73.4 °F - 73.4 °F 100% 29.87 in 10.0 mi SSW 4.6 mph - N/A   Clear
2:55 AM 73.4 °F - 73.4 °F 100% 29.87 in 10.0 mi Calm Calm - N/A   Clear
3:15 AM 73.4 °F - 73.4 °F 100% 29.86 in 10.0 mi WSW 3.5 mph - N/A   Clear
3:35 AM 73.4 °F - 73.4 °F 100% 29.86 in 10.0 mi SW 3.5 mph - N/A   Clear
3:55 AM 73.4 °F - 73.4 °F 100% 29.85 in 10.0 mi SSW 6.9 mph - N/A   Clear
4:15 AM 73.4 °F - 73.4 °F 100% 29.85 in 10.0 mi SSW 6.9 mph - N/A   Clear
4:35 AM 71.6 °F - 71.6 °F 100% 29.85 in 8.0 mi Calm Calm - N/A   Clear
4:55 AM 71.6 °F - 71.6 °F 100% 29.86 in 8.0 mi Calm Calm - N/A   Clear
5:15 AM 71.6 °F - 71.6 °F 100% 29.86 in 10.0 mi Calm Calm - N/A   Clear
5:35 AM 71.6 °F - 71.6 °F 100% 29.86 in 10.0 mi SW 3.5 mph - N/A   Clear
5:55 AM 71.6 °F - 71.6 °F 100% 29.87 in 10.0 mi Calm Calm - N/A   Clear
6:15 AM 71.6 °F - 71.6 °F 100% 29.88 in 9.0 mi WSW 3.5 mph - N/A   Scattered Clouds
6:35 AM 71.6 °F - 71.6 °F 100% 29.89 in 10.0 mi WSW 3.5 mph - N/A   Overcast
6:50 AM 71.6 °F - 71.6 °F 100% 29.89 in 7.0 mi West 4.6 mph - N/A   Overcast
7:50 AM 73.4 °F - 73.4 °F 100% 29.90 in 7.0 mi West 6.9 mph - N/A   Scattered Clouds
8:50 AM 75.2 °F - 71.6 °F 89% 29.91 in 7.0 mi West 11.5 mph - N/A   Mostly Cloudy
9:50 AM 77.0 °F - 73.4 °F 89% 29.93 in 7.0 mi WNW 9.2 mph - N/A   Overcast
10:50 AM 78.8 °F - 73.4 °F 83% 29.93 in 7.0 mi WSW 8.1 mph - N/A   Mostly Cloudy
11:50 AM 84.2 °F 92.3 °F 75.2 °F 74% 29.93 in 10.0 mi WSW 5.8 mph - N/A   Clear
12:50 PM 86.0 °F 95.1 °F 75.2 °F 70% 29.94 in 10.0 mi WSW 11.5 mph - N/A   Scattered Clouds
1:50 PM 87.8 °F 97.6 °F 75.2 °F 66% 29.93 in 10.0 mi West 11.5 mph - N/A   Scattered Clouds
2:50 PM 86.0 °F 95.1 °F 75.2 °F 70% 29.93 in 10.0 mi WSW 11.5 mph - N/A   Scattered Clouds
3:50 PM 89.6 °F 98.2 °F 73.4 °F 59% 29.92 in 10.0 mi West 6.9 mph - N/A   Scattered Clouds
4:50 PM 87.8 °F 97.6 °F 75.2 °F 66% 29.91 in 10.0 mi WSW 11.5 mph - N/A   Scattered Clouds
5:50 PM 86.0 °F 95.1 °F 75.2 °F 70% 29.91 in 10.0 mi WSW 11.5 mph - N/A   Scattered Clouds
6:50 PM 86.0 °F 95.1 °F 75.2 °F 70% 29.91 in 10.0 mi WSW 8.1 mph - N/A   Partly Cloudy
7:50 PM 84.2 °F 92.3 °F 75.2 °F 74% 29.92 in 10.0 mi WSW 11.5 mph - N/A   Clear
8:15 PM 82.4 °F 89.5 °F 75.2 °F 79% 29.93 in 10.0 mi SW 4.6 mph - N/A   Clear
8:35 PM 80.6 °F 86.2 °F 75.2 °F 84% 29.94 in 10.0 mi Calm Calm - N/A   Clear
8:55 PM 80.6 °F 87.1 °F 77.0 °F 89% 29.94 in 10.0 mi Calm Calm - N/A   Scattered Clouds
9:15 PM 78.8 °F - 75.2 °F 89% 29.95 in 10.0 mi Calm Calm - N/A   Scattered Clouds
9:35 PM 77.0 °F - 75.2 °F 94% 29.96 in 10.0 mi Calm Calm - N/A   Scattered Clouds
9:55 PM 78.8 °F - 75.2 °F 89% 29.96 in 10.0 mi Calm Calm - N/A   Partly Cloudy
10:15 PM 78.8 °F - 75.2 °F 89% 29.96 in 10.0 mi Calm Calm - N/A   Clear
10:35 PM 75.2 °F - 75.2 °F 100% 29.97 in 10.0 mi Calm Calm - N/A   Clear
10:55 PM 75.2 °F - 75.2 °F 100% 29.97 in 10.0 mi Calm Calm - N/A   Clear
11:15 PM 75.2 °F - 75.2 °F 100% 29.97 in 8.0 mi Calm Calm - N/A   Clear
11:35 PM 75.2 °F - 75.2 °F 100% 29.98 in 8.0 mi Calm Calm - N/A   Clear
11:55 PM 73.4 °F - 73.4 °F 100% 29.98 in 6.0 mi Calm Calm - N/A   Clear